When you browse on this site, cookies collect data to enhance your experience and personalize the content and advertising you see.
Visit our Privacy Policy to learn more. By continuing to use the site, you agree to this use of cookies and data.
  • In Latvia
  • List of Countries
  • For 7 days
  • Water Temperature
  • Weather Map
  • Weather Widgets
  • user-avatar
    Login

    Hourly Weather Adelaide

    Today, 17 November, Sunday

    Time Temperature Precipitation Wind Pressure Humidity
    00:00 +9°C° 0 mm 3 mps 763 mmHg 84%
    01:00 +9°C° 0 mm 3 mps 763 mmHg 84%
    02:00 +9°C° 0 mm 2 mps 763 mmHg 84%
    03:00 +9°C° 0 mm 2 mps 763 mmHg 84%
    04:00 +9°C° 0 mm 2 mps 763 mmHg 81%
    05:00 +10°C° 0 mm 2 mps 763 mmHg 77%
    06:00 +12°C° 0 mm 2 mps 764 mmHg 74%
    07:00 +14°C° 0 mm 2 mps 764 mmHg 66%
    08:00 +16°C° 0 mm 1 mps 764 mmHg 58%
    09:00 +18°C° 0 mm 2 mps 764 mmHg 50%
    10:00 +19°C° 0 mm 2 mps 763 mmHg 49%
    11:00 +20°C° 0 mm 3 mps 763 mmHg 48%
    12:00 +21°C° 0 mm 3 mps 763 mmHg 46%
    13:00 +21°C° 0 mm 4 mps 762 mmHg 48%
    14:00 +20°C° 0 mm 4 mps 762 mmHg 50%
    15:00 +21°C° 0 mm 3 mps 761 mmHg 50%
    16:00 +20°C° 0 mm 3 mps 761 mmHg 55%
    17:00 +19°C° 0 mm 3 mps 761 mmHg 59%
    18:00 +17°C° 0 mm 2 mps 761 mmHg 64%
    19:00 +16°C° 0 mm 2 mps 761 mmHg 69%
    20:00 +15°C° 0 mm 2 mps 762 mmHg 74%
    21:00 +14°C° 0 mm 2 mps 762 mmHg 79%
    22:00 +13°C° 0 mm 2 mps 762 mmHg 78%
    23:00 +13°C° 0 mm 2 mps 761 mmHg 78%

    Tomorrow, 18 November, Monday

    Time Temperature Precipitation Wind Pressure Humidity
    00:00 +13°C° 0 mm 2 mps 761 mmHg 78%
    01:00 +13°C° 0 mm 2 mps 760 mmHg 74%
    02:00 +12°C° 0 mm 3 mps 760 mmHg 71%
    03:00 +13°C° 0 mm 3 mps 759 mmHg 68%
    04:00 +14°C° 0 mm 3 mps 759 mmHg 63%
    05:00 +16°C° 0 mm 3 mps 759 mmHg 57%
    06:00 +17°C° 0 mm 3 mps 759 mmHg 51%
    07:00 +20°C° 0 mm 3 mps 759 mmHg 45%
    08:00 +22°C° 0 mm 3 mps 758 mmHg 38%
    09:00 +25°C° 0 mm 3 mps 758 mmHg 31%
    10:00 +27°C° 0 mm 3 mps 758 mmHg 30%
    11:00 +28°C° 0 mm 3 mps 758 mmHg 28%
    12:00 +29°C° 0 mm 3 mps 757 mmHg 26%
    13:00 +29°C° 0 mm 3 mps 757 mmHg 26%
    14:00 +29°C° 0 mm 3 mps 756 mmHg 26%
    15:00 +29°C° 0 mm 3 mps 755 mmHg 26%
    16:00 +28°C° 0 mm 3 mps 755 mmHg 30%
    17:00 +26°C° 0 mm 3 mps 755 mmHg 35%
    18:00 +24°C° 0 mm 3 mps 755 mmHg 40%
    19:00 +21°C° 0 mm 3 mps 755 mmHg 46%
    20:00 +20°C° 0 mm 2 mps 756 mmHg 52%
    21:00 +18°C° 0 mm 2 mps 756 mmHg 58%
    22:00 +19°C° 0 mm 1 mps 756 mmHg 63%
    23:00 +18°C° 0 mm 1 mps 756 mmHg 68%

    Day after tomorrow, 19 November, Tuesday

    Time Temperature Precipitation Wind Pressure Humidity
    00:00 +16°C° 0 mm 1 mps 756 mmHg 74%
    01:00 +16°C° 0 mm 1 mps 756 mmHg 75%
    02:00 +16°C° 0 mm 1 mps 756 mmHg 76%
    03:00 +15°C° 0 mm 1 mps 756 mmHg 78%
    04:00 +16°C° 0 mm 1 mps 756 mmHg 75%
    05:00 +18°C° 0 mm 1 mps 756 mmHg 72%
    06:00 +18°C° 0 mm 1 mps 757 mmHg 69%
    07:00 +21°C° 0 mm 1 mps 757 mmHg 61%
    08:00 +23°C° 0 mm 1 mps 757 mmHg 52%
    09:00 +26°C° 0 mm 1 mps 757 mmHg 43%
    10:00 +27°C° 0 mm 2 mps 757 mmHg 41%
    11:00 +28°C° 0 mm 2 mps 756 mmHg 38%
    12:00 +29°C° 0 mm 3 mps 756 mmHg 36%
    13:00 +28°C° 0 mm 3 mps 756 mmHg 37%
    14:00 +28°C° 0 mm 3 mps 755 mmHg 39%
    15:00 +27°C° 0 mm 3 mps 755 mmHg 41%
    16:00 +26°C° 0 mm 3 mps 755 mmHg 47%
    17:00 +24°C° 0 mm 3 mps 755 mmHg 53%
    18:00 +22°C° 0 mm 3 mps 755 mmHg 59%
    19:00 +21°C° 0 mm 3 mps 755 mmHg 61%
    20:00 +20°C° 0 mm 3 mps 755 mmHg 62%
    21:00 +19°C° 0 mm 3 mps 755 mmHg 64%
    22:00 +19°C° 0 mm 3 mps 754 mmHg 61%
    23:00 +19°C° 0 mm 3 mps 754 mmHg 59%

    20 November, Wednesday

    Time Temperature Precipitation Wind Pressure Humidity
    00:00 +19°C° 0 mm 2 mps 753 mmHg 57%
    01:00 +20°C° 0 mm 3 mps 753 mmHg 54%
    02:00 +21°C° 0 mm 4 mps 752 mmHg 51%
    03:00 +22°C° 0 mm 4 mps 751 mmHg 48%
    04:00 +23°C° 0 mm 5 mps 751 mmHg 43%
    05:00 +26°C° 0 mm 5 mps 751 mmHg 39%
    06:00 +27°C° 0 mm 6 mps 751 mmHg 34%
    07:00 +30°C° 0 mm 6 mps 751 mmHg 28%
    08:00 +34°C° 0 mm 7 mps 751 mmHg 23%
    09:00 +38°C° 0 mm 7 mps 751 mmHg 17%
    10:00 +39°C° 0 mm 7 mps 750 mmHg 16%
    11:00 +40°C° 0 mm 8 mps 749 mmHg 15%
    12:00 +40°C° 0 mm 9 mps 749 mmHg 14%
    13:00 +42°C° 0 mm 9 mps 748 mmHg 14%
    14:00 +42°C° 0 mm 9 mps 747 mmHg 13%
    15:00 +42°C° 0 mm 9 mps 746 mmHg 13%
    16:00 +40°C° 0 mm 8 mps 746 mmHg 13%
    17:00 +39°C° 0 mm 8 mps 746 mmHg 14%
    18:00 +38°C° 0 mm 7 mps 746 mmHg 15%
    19:00 +36°C° 0 mm 7 mps 746 mmHg 15%
    20:00 +36°C° 0 mm 7 mps 746 mmHg 15%
    21:00 +35°C° 0 mm 8 mps 746 mmHg 14%
    22:00 +32°C° 0 mm 7 mps 746 mmHg 27%
    23:00 +27°C° 0 mm 7 mps 747 mmHg 40%

    21 November, Thursday

    Time Temperature Precipitation Wind Pressure Humidity
    00:00 +23°C° 0 mm 6 mps 748 mmHg 53%
    01:00 +21°C° 0 mm 6 mps 749 mmHg 61%
    02:00 +19°C° 0 mm 6 mps 750 mmHg 70%
    03:00 +16°C° 0 mm 6 mps 751 mmHg 79%
    04:00 +16°C° 0 mm 6 mps 753 mmHg 77%
    05:00 +16°C° 0 mm 6 mps 754 mmHg 76%
    06:00 +16°C° 0 mm 6 mps 755 mmHg 74%
    07:00 +17°C° 0 mm 6 mps 755 mmHg 67%
    08:00 +19°C° 0 mm 6 mps 756 mmHg 59%
    09:00 +20°C° 0 mm 6 mps 756 mmHg 52%
    10:00 +20°C° 0 mm 6 mps 757 mmHg 50%
    11:00 +21°C° 0 mm 6 mps 757 mmHg 49%
    12:00 +21°C° 0 mm 6 mps 757 mmHg 47%
    13:00 +21°C° 0 mm 7 mps 756 mmHg 46%
    14:00 +21°C° 0 mm 7 mps 756 mmHg 44%
    15:00 +21°C° 0 mm 7 mps 756 mmHg 43%
    16:00 +20°C° 0 mm 7 mps 757 mmHg 47%
    17:00 +17°C° 0 mm 7 mps 757 mmHg 51%
    18:00 +16°C° 0 mm 6 mps 757 mmHg 55%
    19:00 +15°C° 0 mm 6 mps 758 mmHg 62%
    20:00 +13°C° 0 mm 5 mps 758 mmHg 68%
    21:00 +12°C° 0 mm 5 mps 759 mmHg 75%
    22:00 +11°C° 0 mm 4 mps 759 mmHg 76%
    23:00 +11°C° 0 mm 4 mps 759 mmHg 78%

    22 November, Friday

    Time Temperature Precipitation Wind Pressure Humidity
    00:00 +11°C° 0 mm 3 mps 759 mmHg 79%
    01:00 +10°C° 0 mm 3 mps 759 mmHg 81%
    02:00 +10°C° 0 mm 3 mps 759 mmHg 82%
    03:00 +10°C° 0 mm 3 mps 759 mmHg 84%
    04:00 +10°C° 0 mm 3 mps 759 mmHg 81%
    05:00 +12°C° 0 mm 2 mps 759 mmHg 78%
    06:00 +13°C° 0 mm 2 mps 759 mmHg 74%
    07:00 +15°C° 0 mm 2 mps 759 mmHg 61%
    08:00 +18°C° 0 mm 2 mps 759 mmHg 48%
    09:00 +20°C° 0 mm 2 mps 759 mmHg 35%
    10:00 +21°C° 0 mm 3 mps 758 mmHg 36%
    11:00 +22°C° 0 mm 3 mps 758 mmHg 36%
    12:00 +23°C° 0 mm 4 mps 757 mmHg 37%
    13:00 +23°C° 0 mm 5 mps 757 mmHg 38%
    14:00 +23°C° 0 mm 5 mps 757 mmHg 39%
    15:00 +22°C° 0 mm 5 mps 757 mmHg 40%
    16:00 +21°C° 0 mm 5 mps 757 mmHg 42%
    17:00 +20°C° 0 mm 5 mps 757 mmHg 44%
    18:00 +19°C° 0 mm 5 mps 758 mmHg 46%
    19:00 +17°C° 0 mm 4 mps 758 mmHg 51%
    20:00 +14°C° 0 mm 4 mps 758 mmHg 57%
    21:00 +12°C° 0 mm 3 mps 759 mmHg 63%
    22:00 +12°C° 0 mm 3 mps 759 mmHg 65%
    23:00 +13°C° 0 mm 2 mps 758 mmHg 68%
    Show more